This is the latest recevied weather packets stored in our database for station/object SR6NWB-11. If no packets are shown the sender has not sent any weather packets the latest 10 day(s).
| Time | Temp. | Humidity | Pressure | Rain* | Wind** | Luminosity | Snow |
|---|---|---|---|---|---|---|---|
| 1777486386 | 2.78° C | 31% | 1029.9 hPa | 0 mm | - | - | - |
| 1777485826 | 3.33° C | 30% | 1030 hPa | 0 mm | - | - | - |
| 1777485341 | 3.89° C | 30% | 1029.9 hPa | 0 mm | - | - | - |
| 1777484856 | 3.89° C | 30% | 1029.7 hPa | 0 mm | - | - | - |
| 1777484296 | 3.33° C | 30% | 1029.7 hPa | 0 mm | - | - | - |
| 1777483696 | 3.33° C | 29% | 1029.5 hPa | 0 mm | - | - | - |
| 1777483121 | 3.89° C | 28% | 1029.5 hPa | 0 mm | - | - | - |
| 1777480451 | 5° C | 25% | 1029.1 hPa | 0 mm | - | - | - |
| 1777478881 | 6.67° C | 23% | 1029 hPa | 0 mm | - | - | - |
| 1777476721 | 7.78° C | 22% | 1029 hPa | 0 mm | - | - | - |
| 1777474626 | 7.22° C | 23% | 1029 hPa | 0 mm | - | - | - |
| 1777473551 | 7.78° C | 22% | 1028.9 hPa | 0 mm | - | - | - |
| 1777471956 | 7.22° C | 21% | 1028.8 hPa | 0 mm | - | - | - |
| 1777469181 | 6.11° C | 21% | 1028.7 hPa | 0 mm | - | - | - |
| 1777467471 | 6.67° C | 23% | 1028.6 hPa | 0 mm | - | - | - |
| 1777465921 | 6.67° C | 24% | 1028.5 hPa | 0 mm | - | - | - |
| 1777465381 | 6.67° C | 25% | 1028.6 hPa | 0 mm | - | - | - |
| 1777464821 | 6.67° C | 26% | 1028.5 hPa | 0 mm | - | - | - |
| 1777464261 | 6.11° C | 26% | 1028.7 hPa | 0 mm | - | - | - |
| 1777463781 | 6.11° C | 26% | 1028.5 hPa | 0 mm | - | - | - |
| 1777462606 | 6.11° C | 26% | 1028.6 hPa | 0 mm | - | - | - |
| 1777462031 | 6.67° C | 27% | 1028.4 hPa | 0 mm | - | - | - |
| 1777461481 | 6.67° C | 27% | 1028.5 hPa | 0 mm | - | - | - |
| 1777460881 | 6.11° C | 29% | 1028.5 hPa | 0 mm | - | - | - |
| 1777460345 | 5.56° C | 28% | 1028.5 hPa | 0 mm | - | - | - |
* Rain latest hour (hover to see other rain measurements)
** Current wind speed in m/s (hover to see current wind gust speed)